Home > Weather > Raleigh > Past weeks

Flag for USA Past Weather in Raleigh, North Carolina, USA — Yesterday and Last 2 Weeks

Now
77 °F

Partly cloudy.


Feels Like: 79 °F
Forecast: 76 / 92 °F
Wind: 8 mph from Southwest

Location: Raleigh-Durham International Airport

Current Time: Jul 31, 2016 at 3:35:31 AM

Latest Report: Jul 31, 2016 at 2:51 AM


Visibility: 10 mi

Pressure: 29.95 "Hg

Humidity: 82%

Dew Point: 71 °F

Location of RaleighLocation

Past Weather in Raleigh — Graph

°F

Raleigh Temperature Yesterday

Maximum temperature yesterday: 95 °F (at 3:51 PM)
Minimum temperature yesterday: 75 °F (at 3:51 AM)
Average temperature yesterday: 83 °F

High & Low Weather Summary for the Past Weeks

 TemperatureHumidityPressure
High96 °F (Jul 25, 3:51 PM)97% (Jul 16, 1:51 AM)30.23 "Hg (Jul 16, 1:51 AM)
Low69 °F (Jul 17, 5:51 AM)43% (Jul 21, 3:51 PM)29.81 "Hg (Jul 28, 5:51 PM)
Average82 °F73%30.03 "Hg
* Reported Jul 16 1:51 AM — Jul 31 1:51 AM, Raleigh, Weather by CustomWeather, © 2016

Note: Actual official high and low records may vary slightly from our data, if they occured in-between our weather recording intervals... More about our weather records

Advertising

Raleigh Weather History for the Previous 24 Hours

Scroll right to see more
 ConditionsComfort  
Time TempWeatherWind HumidityBarometerVisibility
1:51 AM
Sun, Jul 31
77 °FPassing clouds.5 mph85%29.97 "Hg10 mi
12:51 AM77 °FPartly cloudy.5 mph88%29.99 "Hg10 mi
11:51 PM
Sat, Jul 30
78 °FPartly cloudy.6 mph87%29.99 "Hg10 mi
10:51 PM79 °FPassing clouds.No wind84%29.99 "Hg10 mi
9:51 PM81 °FPartly cloudy.3 mph77%29.97 "Hg10 mi
8:51 PM78 °FBroken clouds.5 mph90%29.94 "Hg10 mi
7:51 PM85 °FBroken clouds.No wind72%29.93 "Hg10 mi
6:51 PM88 °FBroken clouds.No wind65%29.90 "Hg10 mi
5:51 PM84 °FBroken clouds.No wind83%29.91 "Hg9 mi
4:51 PM90 °FBroken clouds.3 mph57%29.91 "Hg10 mi
3:51 PM95 °FBroken clouds.9 mph51%29.90 "Hg10 mi
2:51 PM93 °FBroken clouds.12 mph52%29.91 "Hg10 mi
1:51 PM93 °FBroken clouds.15 mph52%29.94 "Hg10 mi
12:51 PM91 °FPartly sunny.14 mph56%29.96 "Hg10 mi
11:51 AM90 °FPartly sunny.6 mph57%29.97 "Hg10 mi
10:51 AM87 °FPartly sunny.8 mph63%29.97 "Hg10 mi
9:51 AM83 °FPartly sunny.6 mph74%29.97 "Hg10 mi
8:51 AM80 °FBroken clouds.6 mph79%29.97 "Hg10 mi
7:51 AM78 °FPartly sunny.6 mph82%29.95 "Hg10 mi
6:51 AM78 °FPartly cloudy.6 mph82%29.94 "Hg10 mi
5:51 AM77 °FPassing clouds.No wind85%29.92 "Hg10 mi
4:51 AM75 °FPassing clouds.No wind88%29.92 "Hg10 mi
3:51 AM75 °FPassing clouds.No wind90%29.91 "Hg10 mi
Weather by CustomWeather, © 2016

See weather overviewHow to use our weather pages